Theta_e
302 300 303 305 305 305 305 305 305 306 305 305 306 306 306 308 309 318 321 322 321 314 310 311 311 308 307 311 307 306 305 305 304 301 302 299 297 297 295 295 293 293 292 291 288 288 287 297 299 295 301 305 304 304
301 304 304 304 305 305 305 305 305 305 304 305 305 306 306 307 309 315 320 321 323 317 313 316 314 314 314 316 312 309 309 307 309 304 301 299 292 290 295 294 296 293 297 297 295 296 299 301 304 305 304 304 305 305
304 304 304 304 304 304 304 304 303 303 303 304 304 306 306 308 309 315 321 320 320 316 312 314 311 315 317 316 318 310 309 310 307 308 305 302 292 299 291 296 296 298 298 297 295 298 300 301 303 304 305 304 306 306
303 303 303 303 303 303 303 302 303 304 305 304 304 306 306 308 310 315 319 317 320 314 299 309 314 312 315 316 315 315 312 309 307 309 305 296 297 300 298 298 299 300 298 297 297 300 301 302 304 304 305 307 307 307
303 302 301 302 302 303 304 304 304 304 305 305 305 307 307 309 310 316 317 316 316 315 304 308 310 311 313 312 311 313 312 310 309 305 297 302 300 299 298 298 298 299 299 297 297 301 302 302 304 305 305 306 307 306
301 301 301 302 302 303 304 303 304 304 305 306 307 308 309 309 311 321 309 316 313 317 312 304 308 307 310 312 311 310 310 309 310 308 302 301 299 303 293 297 301 301 303 303 301 303 303 305 306 307 306 303 303 302
301 301 301 301 302 303 303 304 304 305 306 306 306 306 306 307 315 312 309 310 306 312 311 302 304 306 306 309 307 310 311 308 311 305 300 302 301 303 293 297 299 299 300 303 305 305 303 303 300 299 298 295 295 296
302 302 300 301 302 303 303 303 303 303 305 305 305 306 306 306 309 312 312 307 305 309 311 300 298 303 306 303 300 303 302 309 302 299 296 296 297 300 296 297 296 297 298 301 298 302 302 297 294 293 295 297 294 291
302 301 301 300 301 302 303 303 303 303 303 304 305 306 313 309 311 312 304 304 313 311 303 301 298 294 304 296 298 301 304 294 299 295 296 300 292 292 289 290 293 294 294 295 295 296 294 291 291 291 291 291 289 289
301 301 301 301 302 302 302 302 303 304 303 304 310 308 303 306 303 305 308 308 306 304 302 291 297 294 300 294 294 296 299 292 293 295 297 294 290 288 288 290 292 294 296 299 296 292 291 290 291 291 290 290 290 290
300 301 301 301 301 301 302 302 302 304 307 309 305 301 309 303 308 301 297 297 299 295 296 294 295 294 299 295 292 295 290 293 288 294 292 291 287 288 291 291 292 294 295 295 295 294 294 292 290 291 291 292 293 293
301 300 300 300 301 301 301 301 303 306 306 306 306 305 305 301 299 291 289 293 293 291 292 294 293 296 295 299 295 292 290 290 287 294 290 287 286 287 288 289 291 293 294 294 295 293 293 294 294 294 292 290 287 287
299 300 300 300 300 300 300 300 300 301 301 306 301 294 298 292 287 289 285 287 288 289 288 289 289 293 296 298 291 293 289 288 294 288 287 286 287 288 289 290 291 293 294 294 293 292 290 289 288 287 287 286 287 288
298 298 298 299 299 299 299 299 299 300 302 293 290 287 288 287 287 286 287 287 286 287 289 291 288 293 289 290 289 290 286 287 284 284 284 284 287 289 290 293 293 292 289 289 289 288 288 286 286 286 285 285 285 285
298 297 297 297 299 298 298 298 297 300 295 289 291 283 284 285 286 285 285 287 287 289 290 291 290 292 287 286 286 285 284 284 285 285 285 287 287 290 291 291 290 291 287 288 291 288 286 287 286 286 285 285 285 284
297 298 295 297 298 298 297 297 295 295 290 288 287 285 285 285 285 285 285 285 289 288 290 290 286 285 284 286 285 284 284 283 285 286 286 287 288 290 289 289 290 290 290 291 289 288 287 285 284 285 284 283 283 283
296 294 295 297 297 296 297 295 295 289 288 287 285 285 285 285 285 285 285 286 289 287 285 287 285 283 286 285 283 287 284 286 286 287 288 290 291 291 292 291 289 289 289 288 287 286 284 283 283 282 281 281 281 282
293 295 296 296 298 297 295 293 291 288 284 285 285 284 286 286 286 286 287 288 291 289 289 285 287 284 284 282 284 286 286 287 288 289 290 289 289 289 291 289 289 288 286 284 283 282 282 282 281 280 279 279 280 280
294 295 295 295 296 295 291 290 291 284 284 286 286 286 286 286 288 288 288 289 289 291 290 288 286 285 286 289 285 284 285 287 287 287 286 288 288 288 287 286 285 284 283 282 282 282 281 279 278 278 277 277 277 278
294 295 294 294 297 293 287 287 293 287 284 284 286 284 285 285 286 287 288 290 291 291 288 286 286 287 287 287 289 292 292 291 290 287 284 284 285 284 284 284 282 282 282 280 278 278 279 278 277 276 275 275 275 274
295 294 293 295 293 291 286 286 286 286 286 284 285 286 285 287 286 286 286 288 289 287 286 283 283 284 284 284 286 288 287 289 291 290 287 281 282 282 281 281 280 280 279 278 276 275 274 274 274 274 274 274 273 275
293 292 292 291 288 287 286 287 286 288 287 286 287 287 285 285 285 285 287 287 284 284 285 285 285 285 284 282 282 284 284 284 284 282 281 281 279 277 276 277 278 276 275 275 275 273 273 272 271 272 272 272 272 273
291 291 288 286 283 283 281 289 283 283 281 282 285 282 283 284 285 287 283 285 284 286 287 284 282 283 281 281 281 281 282 281 280 279 277 276 276 276 275 274 274 273 273 272 272 272 271 268 270 269 271 271 271 272
290 284 279 280 281 277 283 280 282 281 282 280 278 278 280 282 284 283 280 280 280 283 283 282 282 280 280 279 277 277 278 278 277 278 277 276 274 273 273 272 271 270 269 270 270 269 269 269 267 269 269 269 269 269
280 279 280 276 280 278 276 277 278 279 277 278 277 279 280 281 280 277 276 277 279 279 281 282 281 279 277 276 276 275 276 277 275 272 273 274 273 272 271 270 270 269 269 268 267 267 267 267 267 267 267 268 266 266
276 280 278 278 278 278 276 275 275 277 277 276 277 279 281 280 275 273 275 277 278 277 277 279 278 276 274 275 274 273 273 275 274 270 270 271 270 270 269 269 269 269 268 267 266 265 265 266 265 265 266 267 266 265
276 277 280 283 281 280 279 278 278 279 276 276 279 278 278 273 273 274 277 276 276 275 275 275 277 276 274 272 271 271 271 272 272 270 270 269 269 269 268 266 265 266 267 266 265 265 264 264 264 265 266 267 267 265
279 280 277 280 279 281 277 278 277 277 279 281 280 275 274 275 274 273 274 275 275 274 273 272 272 272 272 271 272 271 270 270 269 269 269 268 268 267 266 267 266 264 264 264 264 264 265 265 265 266 265 264 264 265
280 282 281 274 277 279 278 278 278 280 281 281 279 276 273 271 271 272 273 274 276 275 273 271 270 270 269 268 268 268 269 270 268 266 265 267 267 267 267 266 266 265 265 264 264 264 264 265 265 264 263 263 263 263
280 281 279 276 275 276 279 281 281 282 279 278 276 273 271 270 270 271 272 273 272 270 269 269 270 271 269 270 268 267 266 267 266 266 265 264 265 266 265 265 264 264 264 263 263 263 263 263 263 264 262 262 262 261
281 282 280 279 278 280 279 279 282 281 278 275 273 273 269 269 269 269 268 268 269 270 270 269 267 267 268 267 267 267 266 266 263 263 263 264 264 264 265 264 264 263 263 262 262 262 261 261 262 260 260 259 258 258
277 274 275 275 277 277 276 276 275 277 277 275 270 270 268 269 266 268 267 269 269 268 263 266 267 266 265 265 264 265 259 264 264 263 262 263 264 265 264 264 263 262 262 261 261 260 260 259 260 259 259 258 257 256
274 275 275 275 275 274 273 273 271 271 271 270 267 267 267 267 264 266 267 267 267 266 266 266 266 266 264 262 264 265 261 265 261 261 260 260 259 260 262 264 263 262 260 260 260 260 259 258 259 258 257 256 256 256
Wind_Speed
16 14 15 23 22 20 19 19 20 20 19 21 23 24 24 24 25 6 4 2 2 3 5 5 5 7 6 6 7 9 7 3 2 2 2 3 2 4 3 2 4 5 6 3 3 3 5 5 5 3 4 2 4 4
16 20 20 20 19 17 16 15 15 15 17 19 21 22 23 24 25 7 4 2 3 5 5 3 4 4 3 5 7 12 2 6 5 4 1 3 3 1 1 2 3 4 3 1 6 1 3 8 6 3 4 7 8 8
24 22 19 18 17 17 16 15 14 14 15 18 20 22 24 25 19 3 4 4 4 4 3 4 4 4 5 4 4 6 2 5 5 4 5 3 3 4 4 5 3 5 4 3 2 3 9 9 10 11 10 11 11 11
21 20 20 18 17 16 14 12 12 12 13 18 21 22 22 24 18 7 3 1 5 4 5 3 3 3 9 5 1 3 10 8 7 2 3 3 3 4 2 1 2 2 7 5 5 11 8 8 8 7 7 7 9 9
22 21 21 19 17 14 12 9 8 9 11 16 20 21 22 22 15 8 4 5 3 1 4 4 2 6 9 5 10 9 13 9 4 3 3 2 4 4 2 1 4 7 6 5 5 8 5 8 5 6 9 10 10 10
22 21 19 18 16 14 13 13 12 12 15 17 19 22 24 26 20 5 5 5 1 2 4 4 1 4 9 10 10 11 6 5 3 3 3 3 2 2 5 4 3 2 6 7 6 7 9 10 8 10 8 11 9 9
20 21 18 17 16 17 18 20 20 17 17 17 16 15 13 8 4 4 3 3 2 2 4 5 3 3 4 3 4 4 5 4 3 3 3 3 3 3 3 4 5 8 10 8 7 7 4 11 6 9 11 13 15 16
19 19 19 18 16 18 17 19 19 18 20 25 24 21 22 22 16 5 4 5 1 3 3 6 3 2 6 2 3 4 3 2 6 4 2 3 3 0 4 5 8 9 10 4 11 9 7 8 11 10 10 12 15 14
18 18 19 18 16 13 19 18 14 12 12 11 14 13 5 7 3 1 6 10 1 2 4 3 6 5 2 3 2 2 2 3 1 2 2 3 2 4 3 6 7 9 8 8 6 9 11 13 12 11 12 14 12 9
19 18 17 14 12 12 17 13 14 12 10 10 9 6 4 2 7 6 2 3 7 6 5 5 1 3 1 1 2 2 2 2 3 2 3 2 3 4 3 2 4 7 9 4 3 7 10 12 12 12 11 8 7 5
20 18 16 16 16 19 17 14 13 7 8 4 4 3 1 6 1 5 4 5 3 4 4 3 2 4 2 2 3 3 3 1 3 3 3 3 3 4 5 5 5 7 9 11 12 12 12 11 10 9 7 6 4 1
22 20 19 16 16 17 16 14 6 7 3 3 5 4 3 5 3 7 3 1 3 3 2 1 2 3 2 2 3 1 3 1 3 3 2 3 5 6 5 5 6 7 9 11 12 12 10 8 6 5 5 5 4 3
21 23 22 19 16 14 15 14 12 11 6 2 4 5 3 4 7 3 5 2 2 1 2 1 2 2 2 3 4 2 3 2 2 2 2 3 8 6 6 5 6 7 7 9 9 8 7 7 7 5 5 3 3 4
17 18 23 22 16 15 15 13 11 5 6 7 6 6 4 3 4 3 3 3 2 1 2 3 3 2 1 2 1 2 2 1 4 5 3 5 7 7 5 5 6 7 5 5 6 6 5 5 4 4 4 3 4 6
13 16 15 24 15 9 10 12 13 6 6 6 4 4 4 2 3 2 1 2 2 1 0 3 3 2 2 3 2 3 3 4 2 1 3 5 7 9 8 4 3 4 3 3 4 4 4 4 5 8 8 8 8 8
8 8 13 22 12 9 6 7 7 5 5 4 6 3 1 2 2 2 3 2 2 1 0 3 2 2 2 2 3 2 3 2 3 2 4 8 8 7 4 4 4 2 3 2 4 5 7 8 8 7 8 9 9 8
10 6 19 17 9 7 11 5 4 7 5 4 3 2 2 4 3 2 2 2 3 2 2 0 1 3 2 2 3 1 2 2 4 5 4 6 6 4 3 2 3 5 7 8 9 10 9 7 7 7 8 10 9 8
6 8 15 14 4 4 4 6 5 6 7 4 3 3 2 3 2 2 2 3 2 2 1 3 2 2 1 2 2 3 3 4 4 5 5 4 4 4 6 9 10 10 10 10 9 9 7 6 6 6 8 10 9 8
5 13 17 16 6 5 5 6 4 6 4 1 1 2 2 2 3 1 1 3 3 2 3 1 2 2 2 2 1 3 3 3 4 5 6 8 8 9 11 11 10 10 10 8 7 5 5 8 6 6 6 6 7 7
9 17 21 16 8 5 6 5 3 5 3 2 2 3 2 2 2 2 3 4 3 1 3 3 3 3 3 4 3 1 5 6 8 7 6 6 6 9 8 7 7 7 7 7 7 7 5 4 5 5 6 6 7 8
8 9 12 8 5 8 6 4 5 3 2 3 1 1 2 1 2 3 3 4 3 3 3 3 2 2 3 3 3 2 3 4 4 4 6 6 5 6 7 6 7 6 5 5 5 5 6 5 5 6 6 6 7 7
5 11 4 7 6 5 5 6 3 2 2 2 2 2 2 2 2 2 3 1 3 3 3 2 2 1 3 5 5 6 5 8 11 10 12 9 7 7 6 5 5 6 6 5 5 4 4 5 5 5 6 6 6 6
7 6 5 7 6 7 4 3 4 5 3 3 1 1 2 2 3 3 1 3 3 5 4 3 6 8 8 8 8 10 8 7 8 9 9 8 7 7 6 6 6 5 4 5 4 4 4 5 5 6 6 6 6 7
4 6 6 6 6 4 2 4 3 2 2 3 3 2 3 3 3 1 3 3 5 6 5 5 4 5 6 8 8 8 7 6 8 8 7 6 6 6 5 5 5 5 4 4 4 4 4 5 6 6 6 7 7 7
7 8 5 6 4 4 5 4 4 2 3 4 4 2 3 3 2 3 3 3 6 6 6 5 5 6 6 5 5 6 10 5 5 8 7 6 6 5 5 4 4 5 4 4 5 5 5 5 6 6 7 6 8 9
8 8 5 4 3 3 2 3 3 3 2 2 2 2 1 1 2 4 3 4 4 5 6 5 4 5 6 6 5 4 5 4 5 7 5 5 5 4 4 3 3 3 5 4 5 7 7 7 7 9 8 8 8 9
5 5 4 2 2 2 2 2 1 1 1 0 1 0 0 1 3 3 2 4 3 4 5 6 6 6 5 5 5 5 5 6 7 7 6 6 6 6 5 4 5 5 5 6 5 6 7 8 8 8 8 8 8 7
3 2 4 3 2 1 2 1 1 2 2 2 1 1 2 3 3 3 3 3 4 4 5 6 7 6 6 6 5 5 5 5 6 6 5 4 4 4 5 4 3 6 5 5 6 6 7 7 8 8 8 8 7 6
3 2 1 3 1 2 3 3 2 2 3 2 2 1 3 3 3 3 3 4 2 2 4 4 5 4 5 5 6 5 4 4 3 3 4 3 2 2 4 4 4 4 5 6 6 7 9 7 7 6 7 6 5 5
3 2 1 1 1 2 2 2 2 2 3 3 3 4 3 3 4 4 3 3 4 4 4 4 3 2 3 2 3 4 4 5 5 5 4 4 4 5 4 5 5 5 5 6 7 7 6 5 5 3 4 4 4 5
3 2 2 2 1 2 3 4 2 3 3 3 4 3 4 4 3 4 5 4 3 3 3 4 4 4 3 4 4 3 2 3 4 3 3 3 4 4 4 5 5 5 5 6 6 6 6 6 5 5 5 6 6 5
4 4 3 3 1 3 4 3 2 1 1 3 3 3 3 3 3 3 4 3 3 4 4 3 3 4 3 3 2 1 1 2 3 4 5 4 4 5 5 5 4 4 5 6 5 5 5 6 5 5 5 6 6 6
0 1 1 3 2 3 3 4 3 2 3 3 3 2 3 3 4 3 3 4 4 4 4 3 3 1 1 2 4 3 3 3 5 7 7 6 6 6 6 4 4 5 6 6 5 5 6 6 6 6 6 6 6 6
Wind_Direction
151 147 196 151 150 156 152 154 166 163 157 165 174 176 174 178 178 211 99 48 251 149 138 207 157 152 145 188 149 135 143 187 131 142 171 158 157 183 201 127 186 188 169 181 133 209 268 155 143 229 13 346 295 281
189 157 125 126 135 138 143 142 138 146 161 171 173 172 172 171 176 196 105 36 37 68 67 58 63 12 327 181 129 172 37 147 161 114 100 107 135 40 102 218 181 229 237 253 222 258 109 194 276 324 307 292 294 292
103 112 116 114 116 120 119 116 125 144 163 171 172 169 170 170 163 154 128 152 95 93 106 176 122 44 35 6 340 146 183 133 146 18 134 114 134 161 164 218 173 211 180 236 242 176 240 247 259 270 274 271 288 289
96 96 95 94 92 94 109 124 149 163 164 169 169 167 161 161 155 106 138 142 80 88 121 112 357 42 342 319 230 1 120 98 108 115 106 135 128 229 178 56 226 29 167 205 249 277 273 259 247 270 289 288 284 288
84 84 90 93 94 102 104 104 88 97 109 145 154 150 144 138 115 96 94 55 43 337 133 117 165 24 11 90 89 126 132 123 132 107 106 123 112 138 61 276 245 187 196 201 257 313 298 301 350 333 301 314 331 321
82 84 84 83 84 80 76 75 69 69 77 95 122 129 133 136 145 158 35 90 56 241 129 128 56 18 31 72 92 73 66 70 82 109 115 105 70 194 154 201 33 23 319 317 293 321 305 307 323 17 2 9 18 29
78 80 78 76 69 66 63 69 66 70 82 85 89 97 106 120 90 107 158 79 335 139 140 114 124 62 339 34 48 40 42 69 46 105 77 115 134 216 160 212 43 0 347 341 359 324 282 41 22 35 61 68 70 70
66 69 68 73 70 64 57 62 63 58 78 84 87 91 94 99 125 79 37 71 324 172 85 116 92 145 359 67 84 359 57 63 27 91 106 116 114 119 221 54 356 355 331 62 19 30 53 65 62 66 82 85 83 82
62 60 57 51 53 50 51 45 46 62 86 125 130 146 79 38 78 119 333 312 254 11 106 91 137 167 64 63 51 75 24 79 98 107 134 151 145 207 34 344 357 356 341 317 54 67 72 74 74 75 86 91 90 85
55 53 53 61 72 65 60 38 23 22 30 38 40 40 74 59 319 281 20 24 24 14 31 83 34 103 51 145 77 103 27 120 156 110 130 220 101 87 36 33 26 21 19 60 187 80 88 89 90 88 86 93 101 124
57 55 49 40 31 37 22 19 13 350 49 50 66 73 331 332 44 33 60 45 356 52 30 65 76 122 7 123 118 359 122 68 158 131 215 162 160 120 92 86 73 64 66 74 85 90 97 112 120 124 125 131 139 46
54 52 50 50 52 54 44 28 13 45 36 67 98 65 40 25 64 77 45 24 31 101 50 67 63 67 81 25 103 124 101 126 179 121 186 208 115 120 115 101 94 93 90 92 95 105 111 100 88 82 44 31 17 327
56 51 46 41 41 45 42 41 64 115 169 155 68 63 18 333 54 90 150 123 115 69 18 77 68 53 131 73 74 129 151 144 139 182 215 48 132 129 130 119 112 103 100 100 96 86 77 68 53 38 41 29 346 16
62 58 47 36 31 32 40 25 19 36 48 55 31 41 23 51 53 34 27 60 68 49 83 71 72 61 38 82 48 150 76 127 207 211 185 142 142 140 150 158 136 124 106 106 93 85 85 71 65 60 44 28 15 24
67 57 47 19 11 19 37 36 24 42 51 63 30 57 54 70 41 21 345 76 31 47 312 104 80 44 43 99 41 108 164 215 244 136 113 137 147 157 166 164 135 142 135 117 77 79 71 65 63 64 43 34 32 25
40 58 19 354 2 31 53 41 33 58 52 52 43 82 41 93 49 26 14 44 13 14 318 46 91 90 75 107 179 171 197 185 136 118 123 142 157 173 177 137 138 90 163 116 75 70 67 54 52 54 48 30 22 18
51 42 339 343 353 42 33 67 55 59 74 57 47 2 19 64 57 31 21 14 317 40 65 59 102 60 132 127 124 152 87 105 121 117 116 135 140 126 172 135 136 113 99 94 82 72 70 63 58 44 26 15 2 9
47 338 349 358 6 60 48 33 73 68 65 32 57 6 23 26 55 44 18 350 6 56 31 62 129 107 55 104 127 131 100 77 91 103 88 84 90 101 111 108 101 96 90 85 85 79 65 55 45 32 15 4 348 356
27 10 6 14 39 80 62 44 26 83 61 36 59 28 50 68 56 22 22 40 32 35 121 125 68 54 61 47 76 126 134 144 138 108 84 70 75 91 95 92 95 96 90 83 78 72 77 56 40 24 9 354 343 347
12 16 0 8 23 72 66 39 12 74 65 55 29 35 55 36 322 321 12 18 355 7 49 37 35 19 359 21 6 87 143 140 141 130 111 90 85 85 82 94 95 102 103 99 74 44 51 52 35 14 6 353 344 343
18 354 353 12 52 57 71 22 65 50 77 60 1 33 65 360 40 23 15 349 8 21 60 45 24 28 30 18 8 29 91 166 156 155 147 131 106 100 95 87 80 74 75 62 52 51 35 25 5 356 348 350 344 337
352 343 36 25 64 65 71 20 52 29 62 65 71 6 55 54 47 40 323 35 60 36 21 9 22 76 64 38 41 49 84 96 92 86 88 112 117 100 85 67 75 73 64 48 39 29 14 7 0 343 342 344 336 341
351 17 42 25 70 46 47 340 54 18 59 38 315 86 68 62 27 296 78 54 62 18 2 49 54 73 81 68 66 51 44 78 92 92 89 88 87 86 81 69 56 59 62 48 13 7 6 348 357 339 343 340 339 336
10 46 39 43 43 72 9 42 40 38 62 40 20 32 47 24 331 48 73 59 19 358 11 85 93 96 80 61 55 41 48 64 80 76 78 97 95 82 78 78 68 58 31 2 7 360 356 349 340 346 346 334 342 336
59 18 33 38 34 62 52 45 28 43 48 17 351 37 49 331 30 54 49 36 14 17 19 44 68 80 90 84 66 53 30 47 82 84 56 71 99 108 95 86 78 57 16 2 7 349 349 343 338 337 331 330 338 336
66 25 35 40 42 43 50 73 57 29 9 348 10 9 312 12 56 65 61 12 20 14 11 30 70 83 65 44 66 57 43 40 91 92 72 55 54 67 65 48 26 78 22 359 343 336 333 333 327 323 318 327 337 332
67 53 33 49 25 95 111 101 141 252 165 343 34 111 82 75 93 90 89 30 16 25 17 19 42 69 84 83 73 54 52 47 62 86 96 82 70 55 46 32 17 5 338 343 327 316 313 311 310 313 316 326 335 339
60 34 30 10 41 15 27 42 49 43 42 30 300 312 334 8 73 60 38 47 64 70 66 56 51 56 66 67 74 90 83 87 95 102 110 104 85 70 53 33 18 344 322 322 314 301 304 306 303 308 320 323 327 333
61 16 33 40 26 60 43 34 55 47 358 316 305 99 97 60 33 11 27 17 57 92 88 86 76 80 80 76 62 48 33 17 13 32 26 18 11 71 20 355 338 337 329 318 315 319 319 312 323 322 323 321 326 318
51 351 44 85 57 66 75 11 11 86 58 59 90 111 103 81 36 7 15 36 56 62 53 48 39 37 62 55 79 73 52 35 29 19 358 354 351 346 325 327 330 336 329 325 326 327 334 330 319 308 323 327 335 334
347 321 331 351 23 66 19 329 313 112 101 82 47 65 88 117 112 46 39 25 33 43 68 70 72 41 53 51 38 31 67 66 29 4 338 315 313 308 319 324 321 323 320 318 322 322 331 319 326 323 327 333 336 327
12 39 351 312 51 46 18 17 359 24 118 120 92 107 136 145 95 79 17 344 55 59 44 19 49 70 58 57 36 23 344 336 346 344 320 305 306 320 314 311 310 309 315 314 311 312 318 319 314 323 320 324 330 327
269 222 10 321 318 342 32 332 35 30 52 65 61 43 46 34 81 78 93 26 29 32 31 30 31 33 29 338 341 326 284 306 314 303 304 283 290 307 305 304 308 309 307 304 305 307 310 312 307 316 314 316 315 320